Total_Precipitation_Accumulation
0.02 0.02 0.02 0.02 0.03 0.03 0.01 0.06 0.05 0.06 0.12 0.08 0.01 0.00 0.00 0.00 0.00 0.00 0.00 0.00 0.00 0.00 0.00 0.04 0.05 0.05 0.03 0.03 0.04 0.03 0.01 0.01 0.00 0.00 0.01 0.02 0.03 0.02 0.02 0.05 0.07 0.07 0.04
0.00 0.01 0.00 0.00 0.01 0.04 0.03 0.08 0.13 0.06 0.05 0.06 0.02 0.00 0.00 0.00 0.00 0.00 0.00 0.00 0.00 0.00 0.01 0.04 0.05 0.08 0.05 0.02 0.03 0.04 0.02 0.01 0.00 0.00 0.00 0.03 0.02 0.02 0.02 0.03 0.08 0.08 0.05
0.00 0.00 0.00 0.00 0.00 0.02 0.04 0.04 0.11 0.24 0.17 0.11 0.07 0.02 0.00 0.00 0.00 0.00 0.00 0.00 0.00 0.00 0.00 0.02 0.06 0.11 0.08 0.04 0.05 0.07 0.02 0.00 0.00 0.00 0.00 0.01 0.01 0.02 0.02 0.02 0.07 0.11 0.05
0.00 0.00 0.00 0.00 0.00 0.02 0.07 0.06 0.19 0.27 0.28 0.27 0.25 0.19 0.05 0.01 0.00 0.00 0.00 0.00 0.00 0.00 0.00 0.01 0.04 0.10 0.12 0.12 0.10 0.14 0.04 0.00 0.00 0.00 0.00 0.01 0.04 0.03 0.02 0.01 0.04 0.13 0.08
0.00 0.00 0.00 0.00 0.00 0.01 0.06 0.09 0.11 0.54 0.45 0.25 0.22 0.23 0.21 0.08 0.01 0.00 0.00 0.00 0.00 0.00 0.00 0.00 0.01 0.04 0.04 0.06 0.07 0.19 0.10 0.00 0.00 0.00 0.00 0.01 0.07 0.04 0.02 0.00 0.01 0.11 0.14
0.00 0.00 0.00 0.00 0.00 0.03 0.06 0.10 0.10 0.28 0.65 0.47 0.26 0.19 0.15 0.11 0.03 0.00 0.00 0.00 0.00 0.00 0.00 0.00 0.01 0.02 0.01 0.02 0.04 0.13 0.16 0.02 0.00 0.00 0.00 0.02 0.03 0.04 0.03 0.01 0.00 0.05 0.15
0.00 0.00 0.00 0.00 0.00 0.02 0.05 0.09 0.15 0.18 0.37 0.61 0.57 0.35 0.22 0.11 0.03 0.01 0.00 0.00 0.00 0.00 0.00 0.00 0.01 0.00 0.00 0.01 0.01 0.07 0.16 0.06 0.00 0.00 0.00 0.01 0.02 0.02 0.03 0.02 0.01 0.02 0.15
0.00 0.00 0.00 0.00 0.00 0.01 0.03 0.08 0.15 0.23 0.28 0.51 0.55 0.51 0.41 0.22 0.09 0.03 0.00 0.00 0.00 0.00 0.00 0.00 0.01 0.00 0.00 0.01 0.01 0.02 0.09 0.09 0.04 0.01 0.02 0.02 0.02 0.01 0.02 0.02 0.03 0.04 0.07
0.00 0.00 0.00 0.00 0.00 0.01 0.04 0.07 0.13 0.18 0.26 0.43 0.44 0.38 0.30 0.24 0.11 0.04 0.01 0.00 0.00 0.00 0.00 0.00 0.00 0.00 0.00 0.00 0.00 0.01 0.03 0.04 0.06 0.05 0.05 0.05 0.03 0.03 0.02 0.04 0.04 0.04 0.04
0.00 0.00 0.00 0.00 0.00 0.00 0.02 0.09 0.16 0.20 0.25 0.35 0.40 0.22 0.13 0.13 0.11 0.07 0.03 0.01 0.00 0.00 0.00 0.00 0.00 0.00 0.00 0.00 0.00 0.00 0.01 0.02 0.05 0.05 0.07 0.05 0.04 0.06 0.04 0.03 0.03 0.02 0.02
0.00 0.00 0.00 0.00 0.00 0.01 0.01 0.04 0.22 0.22 0.23 0.24 0.29 0.23 0.22 0.12 0.07 0.05 0.03 0.02 0.01 0.01 0.01 0.00 0.00 0.00 0.00 0.00 0.00 0.00 0.00 0.01 0.03 0.03 0.07 0.05 0.06 0.06 0.08 0.04 0.04 0.03 0.02
0.00 0.00 0.00 0.00 0.00 0.00 0.03 0.03 0.16 0.23 0.22 0.22 0.21 0.21 0.22 0.18 0.13 0.11 0.07 0.04 0.02 0.00 0.00 0.00 0.00 0.00 0.00 0.00 0.00 0.00 0.00 0.01 0.02 0.03 0.03 0.08 0.08 0.07 0.08 0.08 0.04 0.04 0.02
0.00 0.00 0.00 0.00 0.00 0.01 0.04 0.07 0.14 0.24 0.21 0.21 0.20 0.17 0.15 0.12 0.08 0.12 0.12 0.09 0.06 0.06 0.02 0.00 0.00 0.00 0.00 0.00 0.00 0.01 0.00 0.00 0.01 0.03 0.02 0.06 0.08 0.06 0.07 0.10 0.08 0.05 0.03
0.00 0.00 0.00 0.00 0.00 0.02 0.05 0.10 0.12 0.28 0.24 0.22 0.20 0.18 0.16 0.10 0.10 0.10 0.12 0.13 0.13 0.05 0.02 0.00 0.00 0.00 0.00 0.01 0.00 0.00 0.00 0.00 0.00 0.01 0.04 0.04 0.06 0.03 0.04 0.06 0.08 0.06 0.04
0.00 0.00 0.00 0.00 0.00 0.01 0.07 0.11 0.16 0.20 0.39 0.22 0.24 0.19 0.20 0.15 0.11 0.11 0.12 0.15 0.16 0.13 0.03 0.00 0.00 0.00 0.00 0.00 0.00 0.00 0.00 0.00 0.00 0.00 0.01 0.04 0.04 0.03 0.01 0.03 0.04 0.05 0.04
0.00 0.00 0.00 0.00 0.01 0.02 0.08 0.13 0.19 0.15 0.28 0.43 0.22 0.30 0.23 0.21 0.21 0.15 0.11 0.13 0.11 0.11 0.07 0.01 0.01 0.02 0.01 0.00 0.03 0.02 0.00 0.01 0.00 0.00 0.00 0.02 0.03 0.03 0.01 0.02 0.02 0.03 0.03
0.01 0.01 0.00 0.00 0.02 0.05 0.10 0.22 0.19 0.20 0.21 0.32 0.40 0.26 0.34 0.22 0.28 0.24 0.17 0.08 0.08 0.06 0.06 0.02 0.01 0.01 0.02 0.01 0.01 0.01 0.00 0.00 0.00 0.00 0.00 0.00 0.02 0.02 0.02 0.01 0.02 0.02 0.01
0.02 0.02 0.01 0.01 0.02 0.08 0.11 0.23 0.22 0.24 0.21 0.28 0.37 0.34 0.29 0.30 0.29 0.29 0.26 0.18 0.06 0.04 0.04 0.04 0.04 0.01 0.01 0.01 0.01 0.01 0.00 0.00 0.00 0.01 0.00 0.00 0.00 0.02 0.01 0.01 0.01 0.02 0.02
0.07 0.04 0.03 0.03 0.04 0.12 0.16 0.20 0.31 0.25 0.24 0.22 0.30 0.37 0.25 0.37 0.29 0.31 0.27 0.23 0.12 0.04 0.04 0.05 0.06 0.04 0.01 0.02 0.01 0.01 0.00 0.00 0.00 0.02 0.01 0.00 0.00 0.00 0.01 0.02 0.01 0.01 0.02
0.15 0.11 0.10 0.09 0.09 0.25 0.26 0.28 0.39 0.31 0.31 0.27 0.33 0.28 0.38 0.33 0.37 0.22 0.29 0.24 0.15 0.09 0.06 0.07 0.07 0.06 0.04 0.01 0.02 0.02 0.01 0.01 0.01 0.00 0.01 0.00 0.00 0.00 0.00 0.01 0.01 0.01 0.01
0.18 0.21 0.25 0.21 0.21 0.32 0.35 0.35 0.43 0.42 0.34 0.45 0.45 0.39 0.37 0.43 0.39 0.26 0.25 0.26 0.17 0.17 0.11 0.10 0.10 0.07 0.07 0.04 0.03 0.01 0.02 0.00 0.01 0.01 0.02 0.01 0.00 0.00 0.00 0.00 0.00 0.00 0.01
0.21 0.27 0.25 0.28 0.28 0.25 0.39 0.47 0.52 0.57 0.48 0.48 0.60 0.66 0.47 0.54 0.48 0.44 0.38 0.33 0.21 0.20 0.17 0.12 0.11 0.10 0.06 0.04 0.02 0.02 0.02 0.02 0.02 0.01 0.02 0.01 0.01 0.00 0.00 0.00 0.00 0.00 0.00
0.35 0.40 0.34 0.36 0.29 0.22 0.27 0.40 0.48 0.59 0.49 0.47 0.51 0.65 0.75 0.54 0.61 0.58 0.50 0.39 0.31 0.24 0.22 0.15 0.11 0.10 0.06 0.05 0.04 0.04 0.04 0.05 0.03 0.02 0.03 0.02 0.01 0.00 0.00 0.00 0.00 0.00 0.00
0.37 0.54 0.42 0.45 0.38 0.33 0.42 0.54 0.69 0.76 0.64 0.67 0.46 0.56 0.72 0.67 0.64 0.74 0.75 0.63 0.38 0.28 0.19 0.16 0.12 0.09 0.09 0.07 0.10 0.08 0.06 0.08 0.07 0.06 0.08 0.07 0.02 0.02 0.00 0.00 0.00 0.00 0.00
0.34 0.50 0.56 0.53 0.47 0.53 0.65 0.89 1.14 1.07 1.03 1.04 0.82 0.62 0.87 0.63 0.72 0.84 0.88 0.99 0.69 0.36 0.23 0.15 0.11 0.08 0.11 0.15 0.15 0.19 0.20 0.21 0.17 0.10 0.10 0.08 0.05 0.04 0.03 0.01 0.00 0.00 0.00
0.47 0.53 0.53 0.66 0.55 0.57 0.67 1.08 1.29 1.70 1.27 1.25 0.99 0.55 0.88 0.76 0.71 0.94 1.02 1.03 1.07 0.68 0.30 0.26 0.19 0.17 0.13 0.12 0.18 0.21 0.26 0.34 0.22 0.15 0.12 0.12 0.07 0.08 0.07 0.03 0.01 0.00 0.00